SCP
0 0 0 0 0 0 0 0 0 0 0 0 0 0 0 0 0 0 0 0 0 0 0 0 0 0 0 0 0 0 0 0 0 0 0 0 0 0 0 0 0 0 0 0
0 0 0 0 0 0 0 0 0 0 0 0 0 -0 0 0 0 0 0 0 0 0 0 0 0 0 0 0 0 0 0 0 0 0 0 0 0 0 0 0 0 0 0 0
0 0 0 0 0 0 0 0 0 0 0 0 0 -0 0 0 0 0 0 0 0 0 0 0 0 0 -0 0 0 0 0 0 0 0 0 0 0 0 0 0 0 0 0 0
0 0 0 0 0 0 0 0 0 0 0 0 0 -0 -0 -0 -0 -0 0 0 0 0 0 0 -0 -0 -0 0 0 0 0 0 0 0 0 0 0 0 0 0 0 0 0 0
0 0 0 0 0 0 0 0 0 0 0 0 0 0 0 0 -0 0 0 0 0 -0 -0 -0 0 0 0 0 0 0 0 0 0 0 0 0 0 0 0 0 0 0 0 0
0 0 0 0 0 0 0 0 0 0 0 0 0 0 0 0 0 0 0 0 0 0 0 0 0 0 0 0 0 0 0 0 0 0 0 0 0 0 0 0 0 0 0 0
0 0 0 0 0 0 0 0 0 0 0 0 0 0 0 0 0 0 0 0 0 0 0 0 0 0 0 -0 0 0 0 0 0 0 0 0 0 0 0 0 0 0 0 0
0 0 0 0 0 0 0 0 0 0 0 0 0 0 0 0 0 0 0 0 0 0 -0 -0 -0 -0 0 0 0 0 0 0 0 0 0 0 0 0 0 0 0 0 0 0
0 0 0 0 0 0 0 0 0 0 0 0 0 0 0 0 0 0 0 0 0 0 0 0 0 0 0 0 -0 -0 0 0 0 0 0 0 0 0 0 0 0 0 0 0
0 0 0 0 0 0 0 0 0 0 0 0 0 0 0 0 0 0 0 0 0 0 -0 -0 -0 -0 -0 0 0 0 0 0 0 0 0 0 0 0 0 0 0 0 0 0
0 0 0 0 0 0 0 0 0 0 0 0 0 0 0 0 0 0 0 0 0 0 0 0 0 -0 -0 -0 0 0 0 0 0 0 0 0 0 0 0 0 0 0 0 0
0 0 0 0 0 0 0 0 0 0 0 0 0 0 0 0 0 -0 -0 -0 -0 0 0 0 0 0 0 0 0 0 0 0 0 0 -0 -0 0 0 0 0 0 0 0 0
0 0 0 0 0 0 0 0 0 0 0 0 0 0 0 0 0 0 0 -0 -0 0 0 0 0 0 0 0 0 0 0 0 0 0 0 0 0 0 0 0 0 0 0 0
0 0 0 0 0 0 0 0 0 0 0 0 0 0 0 0 0 0 -0 -0 -0 -0 -0 -0 0 0 0 0 0 0 0 0 0 0 0 0 0 0 0 0 0 0 0 0
0 0 0 0 0 0 0 0 0 0 0 0 0 0 0 0 0 0 0 0 0 0 -0 -0 0 0 0 0 0 0 0 0 0 0 0 0 0 0 0 -0 -0 -0 0 0
0 0 0 0 0 0 0 0 0 0 0 0 -0 -0 0 0 0 0 0 0 0 0 0 0 0 0 0 0 0 0 0 0 0 0 0 0 0 0 0 0 -0 -0 -0 0
0 0 0 0 0 0 0 0 0 0 0 0 0 0 0 0 0 0 0 0 0 0 0 0 0 -0 -0 -0 -0 -0 -0 0 0 0 -0 -0 0 0 0 0 0 0 0 0
0 0 0 0 0 0 0 0 0 0 0 0 0 0 0 0 0 0 0 0 0 0 0 -0 -0 -0 -0 -0 -0 -0 -0 -0 -0 0 0 0 0 0 0 0 0 0 0 0
0 0 0 0 0 0 0 0 0 0 0 0 0 0 0 0 0 0 -0 -0 0 0 -0 -0 -0 -0 -0 -0 -0 -0 -0 -0 -0 -0 -0 0 0 0 0 0 0 0 0 0
0 0 0 0 0 0 0 0 0 0 0 0 0 0 0 0 0 0 0 0 0 0 0 0 0 0 0 0 -0 -0 -0 -0 -0 -0 -0 -0 0 0 0 0 0 0 0 0
0 0 0 0 0 0 0 0 0 0 0 0 0 0 0 0 0 0 0 0 0 0 0 0 0 0 0 0 0 0 0 0 -0 -0 -0 -0 -0 -0 0 0 0 0 0 0
0 0 0 0 0 0 0 0 0 0 0 0 0 0 0 0 0 0 0 0 0 0 0 0 0 0 0 0 0 0 0 0 0 0 -0 -0 -0 -0 -0 -0 -0 -0 0 0
0 0 0 0 0 0 0 0 0 0 0 0 0 0 0 0 0 0 0 0 0 0 0 0 0 0 0 0 0 0 0 0 0 0 -0 -0 -0 -0 -0 -0 -0 -0 -0 0
0 0 0 0 0 0 0 0 0 0 0 0 0 0 0 0 0 0 0 0 0 0 0 0 0 0 0 0 0 0 0 0 0 0 0 -0 -0 -0 -0 -0 -0 -0 -0 -0
0 0 0 0 0 0 0 0 0 0 0 0 0 0 0 0 0 0 0 0 0 0 0 0 0 0 0 0 0 0 0 0 0 0 0 0 -0 -0 -0 0 0 0 0 -0
0 0 0 0 0 0 0 0 0 0 0 0 0 0 0 0 0 0 0 0 0 0 0 0 0 0 0 0 0 0 0 0 0 0 0 0 0 0 0 -0 -0 0 -0 -0
Wind_Speed_500mb
7 7 17 35 28 6 2 10 14 14 17 8 35 36 28 48 57 72 85 77 70 76 76 66 60 54 46 44 50 54 60 65 80 87 96 103 106 104 107 103 99 96 92 91
6 15 28 6 8 15 17 25 24 21 27 8 20 39 39 42 59 64 76 79 55 70 68 64 62 51 38 31 35 47 54 63 72 83 89 99 103 108 110 107 106 103 101 97
19 12 12 14 9 14 11 12 19 22 12 11 14 16 10 15 28 43 70 54 63 59 52 48 51 48 41 37 36 37 42 49 62 74 86 95 102 102 106 114 113 111 104 101
13 10 13 8 11 20 17 20 21 10 7 8 8 18 6 16 20 14 39 38 39 33 34 47 62 64 51 37 30 32 38 44 53 67 81 91 97 101 101 106 112 111 107 105
13 12 8 8 19 13 19 4 6 5 8 5 5 8 11 4 15 11 16 19 18 21 44 54 61 76 79 64 39 33 34 42 50 61 71 80 86 91 96 94 101 107 109 108
13 6 11 15 5 12 5 4 8 7 2 8 20 17 5 10 11 4 15 40 42 26 30 58 75 72 66 58 52 44 34 35 39 49 57 68 77 83 88 93 93 92 103 109
7 8 7 6 4 4 7 9 7 9 3 13 5 7 10 13 10 3 12 22 14 24 59 76 70 68 64 58 63 58 53 43 35 41 44 52 62 72 82 88 86 88 91 99
9 18 16 9 12 12 13 16 11 13 7 13 7 17 10 17 19 14 6 2 30 59 61 59 57 56 58 53 46 46 45 44 43 42 42 49 58 61 71 83 86 84 85 84
7 16 6 10 8 14 6 11 6 3 0 7 12 25 28 19 7 7 27 52 58 60 66 63 60 57 49 46 52 49 45 40 33 34 40 41 48 57 62 66 74 82 82 82
4 13 13 7 5 3 10 2 2 1 7 13 17 17 29 16 19 31 33 46 56 58 66 66 60 56 53 49 45 46 44 45 42 36 35 36 41 46 55 62 67 72 77 82
6 8 10 11 6 13 3 6 9 5 12 24 25 15 13 17 24 18 15 33 45 55 56 57 60 60 58 57 56 51 49 47 47 45 45 43 38 41 45 55 61 68 73 80
16 12 20 40 32 16 17 34 33 26 22 19 30 29 20 24 21 27 22 26 36 37 46 52 52 55 60 63 60 62 59 54 54 52 47 46 47 44 44 48 52 59 68 74
3 7 17 13 4 4 5 5 7 10 3 16 21 9 13 3 23 25 20 28 31 40 51 52 56 60 63 66 67 63 62 64 58 53 56 54 53 55 52 49 50 52 55 66
6 10 16 19 24 13 23 18 9 10 9 19 16 28 39 37 23 22 15 12 20 30 44 48 45 49 55 62 66 69 68 65 67 62 56 60 61 61 64 62 57 58 56 57
5 14 17 24 14 6 5 16 31 32 32 23 39 46 45 6 10 20 27 20 24 29 32 44 47 43 50 57 62 66 67 67 68 69 65 62 61 62 62 65 66 60 60 61
6 6 5 8 12 7 18 25 33 35 37 36 42 47 13 3 11 17 28 19 23 36 50 54 49 44 51 57 62 65 67 67 68 69 70 66 64 63 65 68 69 67 67 64
4 5 2 14 13 14 20 32 32 28 34 13 25 3 4 5 8 13 24 16 27 47 57 59 52 46 56 57 55 61 64 67 69 72 76 78 74 69 66 66 67 67 67 70
21 21 8 19 9 37 16 6 1 7 5 10 8 6 11 14 19 24 26 22 37 50 59 60 58 56 62 55 56 59 57 61 65 68 73 77 83 84 78 75 74 68 67 67
32 19 3 5 13 17 24 9 10 10 11 14 10 7 18 24 21 39 25 32 42 52 63 63 60 65 73 69 65 67 65 63 67 73 78 79 82 87 93 90 86 80 73 66
14 24 10 5 8 13 7 4 5 8 8 15 20 13 16 15 4 22 40 40 47 60 69 67 64 73 81 79 78 78 78 80 81 83 82 86 89 89 93 95 97 91 82 77
5 4 23 22 13 12 9 10 12 10 10 23 23 34 33 12 34 64 62 50 55 69 72 71 70 79 85 83 84 88 89 89 87 88 93 97 95 100 100 100 101 101 90 83
10 8 7 5 3 14 12 6 9 9 46 49 46 47 42 51 57 59 68 68 68 74 79 77 78 87 92 90 93 96 99 98 96 100 99 98 99 106 111 110 107 102 100 88
7 12 8 19 12 9 19 30 64 65 52 67 57 61 61 55 60 62 63 67 73 76 77 82 91 98 100 97 97 99 107 106 111 113 115 115 113 107 110 117 116 108 99 96
13 16 15 21 26 30 61 71 72 69 72 71 67 63 61 56 54 51 60 71 76 81 86 85 86 97 107 106 105 105 111 110 114 122 127 127 127 124 116 112 115 107 97 87
22 7 11 28 33 40 59 68 70 61 57 53 49 42 40 41 48 55 68 74 82 88 86 84 84 86 101 102 112 110 105 107 119 125 129 128 123 120 116 110 108 106 100 77
32 35 22 31 45 42 52 60 40 36 31 38 43 45 43 43 52 62 73 77 83 88 88 92 96 90 99 99 107 103 104 104 109 115 113 103 99 100 101 102 108 103 89 70
Wind_Direction_500mb
173 136 201 218 207 98 196 226 244 260 259 306 271 270 269 275 274 275 274 277 278 286 302 305 311 314 309 299 286 275 262 251 239 236 236 236 237 237 236 234 234 233 231 231
71 226 225 114 152 229 243 262 267 274 259 200 269 284 276 260 263 262 270 278 290 296 310 317 326 329 327 311 297 281 266 254 244 238 239 236 238 238 238 236 234 232 230 228
197 210 185 190 191 242 226 221 248 255 316 253 317 278 240 280 257 269 265 272 289 293 310 328 337 337 336 333 314 293 278 263 252 245 240 237 237 238 239 236 234 232 230 231
239 261 193 157 206 204 259 232 253 258 355 251 16 293 186 254 278 264 291 297 300 323 338 356 3 359 334 314 306 305 294 270 256 248 245 241 240 240 242 240 237 234 231 231
241 174 176 186 222 146 235 191 220 194 196 1 302 277 250 222 262 277 286 1 10 19 44 22 15 13 8 359 319 294 287 275 263 257 255 251 246 246 247 246 242 235 232 231
252 320 187 216 200 185 115 59 36 58 47 280 210 194 287 191 207 309 318 350 355 9 40 21 3 4 4 4 9 350 331 310 286 272 265 263 258 254 250 247 245 243 235 231
301 228 277 180 168 86 117 71 313 327 7 239 349 269 245 248 250 289 339 330 12 48 10 6 9 11 13 21 32 29 25 13 338 306 289 278 271 264 260 256 252 247 240 234
288 289 181 186 212 193 176 171 170 234 251 284 348 254 257 230 263 19 57 259 23 9 13 20 16 18 16 15 10 11 9 3 351 332 315 298 284 276 270 268 263 257 251 245
222 256 277 222 183 167 182 187 195 310 55 285 254 282 289 254 157 43 49 30 25 20 19 20 20 22 16 8 5 359 351 347 343 332 323 315 305 292 281 274 269 266 261 253
176 289 245 262 136 242 202 171 92 324 181 234 268 276 247 317 34 34 29 21 14 18 16 15 15 13 14 14 11 9 8 6 359 340 324 313 309 300 292 283 277 268 264 258
139 208 275 33 214 205 145 250 241 274 207 245 256 247 255 71 78 73 42 26 15 5 3 358 356 360 0 358 1 5 1 357 355 354 346 330 315 302 293 289 287 280 270 263
198 208 256 255 237 230 225 246 233 238 240 236 235 252 3 97 87 76 64 40 31 15 3 2 356 350 352 351 347 352 354 353 353 353 348 344 333 314 302 296 290 282 277 271
3 233 274 282 35 51 118 330 13 341 240 242 258 254 336 360 87 39 49 49 33 23 16 7 359 358 355 356 355 350 348 347 346 343 344 342 341 336 324 303 293 288 285 278
280 215 266 272 284 293 277 284 282 266 268 283 268 300 307 309 341 23 27 31 25 12 3 360 359 351 347 348 347 346 348 347 344 344 339 341 342 339 337 329 311 296 287 279
303 264 267 265 287 340 283 280 274 265 261 261 282 281 275 40 354 337 332 340 352 357 352 350 350 348 336 339 338 340 340 341 341 339 340 340 336 335 334 334 330 316 294 286
351 274 325 270 280 278 281 277 265 274 272 261 260 264 61 71 346 326 332 326 333 337 340 343 341 341 334 335 335 333 334 338 336 334 336 334 334 330 323 323 328 329 321 300
286 288 287 263 305 323 283 257 266 260 260 249 259 246 211 246 247 281 307 300 322 335 334 331 327 325 324 328 330 329 332 331 332 334 335 333 333 329 326 320 315 318 322 319
241 240 233 274 22 270 276 9 274 222 104 114 105 208 217 241 274 280 289 266 317 327 325 322 317 316 317 316 319 321 324 326 327 327 328 330 332 330 326 323 319 314 309 311
223 239 265 205 222 306 301 213 195 167 257 174 176 245 257 271 289 282 264 247 298 318 320 315 310 312 314 312 315 316 315 317 320 323 324 325 327 325 326 325 321 315 309 301
208 224 199 87 202 225 245 203 151 114 276 207 199 237 241 250 243 270 281 262 300 314 316 311 307 310 311 310 313 312 311 312 312 315 316 317 319 319 319 321 320 316 313 304
18 13 214 227 249 286 241 207 138 93 263 214 250 275 254 207 257 277 281 279 300 307 309 309 305 308 309 305 306 305 305 304 307 306 308 310 311 311 313 314 315 314 312 306
188 183 204 72 14 278 185 144 159 228 295 296 294 292 280 283 290 285 281 278 297 302 306 306 303 305 305 302 302 302 301 305 305 303 301 300 302 305 307 308 309 309 307 303
269 193 199 195 210 219 204 262 287 287 280 287 283 295 302 297 292 293 285 286 296 301 303 304 305 305 303 303 303 300 300 302 301 301 300 299 299 297 298 301 302 304 303 299
247 195 239 265 255 254 267 273 278 285 287 289 292 300 302 297 294 286 290 297 303 304 304 306 303 302 302 302 301 298 300 299 298 298 297 297 297 295 293 293 295 297 296 292
251 200 244 258 261 265 265 265 270 286 290 287 291 294 295 295 296 303 302 304 305 306 306 306 302 299 297 298 297 296 296 296 296 296 296 295 296 295 294 290 288 288 287 281
242 251 251 261 257 260 267 276 285 289 278 283 291 294 298 306 306 307 304 307 309 309 309 307 305 300 298 297 295 295 295 294 294 295 295 295 294 293 292 290 287 282 284 279
Wind_Speed_850mb
7 7 17 35 28 6 2 10 14 14 17 8 35 36 28 48 57 72 85 77 70 76 76 66 60 54 46 44 50 54 60 65 80 87 96 103 106 104 107 103 99 96 92 91
6 15 28 6 8 15 17 25 24 21 27 8 20 39 39 42 59 64 76 79 55 70 68 64 62 51 38 31 35 47 54 63 72 83 89 99 103 108 110 107 106 103 101 97
19 12 12 14 9 14 11 12 19 22 12 11 14 16 10 15 28 43 70 54 63 59 52 48 51 48 41 37 36 37 42 49 62 74 86 95 102 102 106 114 113 111 104 101
13 10 13 8 11 20 17 20 21 10 7 8 8 18 6 16 20 14 39 38 39 33 34 47 62 64 51 37 30 32 38 44 53 67 81 91 97 101 101 106 112 111 107 105
13 12 8 8 19 13 19 4 6 5 8 5 5 8 11 4 15 11 16 19 18 21 44 54 61 76 79 64 39 33 34 42 50 61 71 80 86 91 96 94 101 107 109 108
13 6 11 15 5 12 5 4 8 7 2 8 20 17 5 10 11 4 15 40 42 26 30 58 75 72 66 58 52 44 34 35 39 49 57 68 77 83 88 93 93 92 103 109
7 8 7 6 4 4 7 9 7 9 3 13 5 7 10 13 10 3 12 22 14 24 59 76 70 68 64 58 63 58 53 43 35 41 44 52 62 72 82 88 86 88 91 99
9 18 16 9 12 12 13 16 11 13 7 13 7 17 10 17 19 14 6 2 30 59 61 59 57 56 58 53 46 46 45 44 43 42 42 49 58 61 71 83 86 84 85 84
7 16 6 10 8 14 6 11 6 3 0 7 12 25 28 19 7 7 27 52 58 60 66 63 60 57 49 46 52 49 45 40 33 34 40 41 48 57 62 66 74 82 82 82
4 13 13 7 5 3 10 2 2 1 7 13 17 17 29 16 19 31 33 46 56 58 66 66 60 56 53 49 45 46 44 45 42 36 35 36 41 46 55 62 67 72 77 82
6 8 10 11 6 13 3 6 9 5 12 24 25 15 13 17 24 18 15 33 45 55 56 57 60 60 58 57 56 51 49 47 47 45 45 43 38 41 45 55 61 68 73 80
16 12 20 40 32 16 17 34 33 26 22 19 30 29 20 24 21 27 22 26 36 37 46 52 52 55 60 63 60 62 59 54 54 52 47 46 47 44 44 48 52 59 68 74
3 7 17 13 4 4 5 5 7 10 3 16 21 9 13 3 23 25 20 28 31 40 51 52 56 60 63 66 67 63 62 64 58 53 56 54 53 55 52 49 50 52 55 66
6 10 16 19 24 13 23 18 9 10 9 19 16 28 39 37 23 22 15 12 20 30 44 48 45 49 55 62 66 69 68 65 67 62 56 60 61 61 64 62 57 58 56 57
5 14 17 24 14 6 5 16 31 32 32 23 39 46 45 6 10 20 27 20 24 29 32 44 47 43 50 57 62 66 67 67 68 69 65 62 61 62 62 65 66 60 60 61
6 6 5 8 12 7 18 25 33 35 37 36 42 47 13 3 11 17 28 19 23 36 50 54 49 44 51 57 62 65 67 67 68 69 70 66 64 63 65 68 69 67 67 64
4 5 2 14 13 14 20 32 32 28 34 13 25 3 4 5 8 13 24 16 27 47 57 59 52 46 56 57 55 61 64 67 69 72 76 78 74 69 66 66 67 67 67 70
21 21 8 19 9 37 16 6 1 7 5 10 8 6 11 14 19 24 26 22 37 50 59 60 58 56 62 55 56 59 57 61 65 68 73 77 83 84 78 75 74 68 67 67
32 19 3 5 13 17 24 9 10 10 11 14 10 7 18 24 21 39 25 32 42 52 63 63 60 65 73 69 65 67 65 63 67 73 78 79 82 87 93 90 86 80 73 66
14 24 10 5 8 13 7 4 5 8 8 15 20 13 16 15 4 22 40 40 47 60 69 67 64 73 81 79 78 78 78 80 81 83 82 86 89 89 93 95 97 91 82 77
5 4 23 22 13 12 9 10 12 10 10 23 23 34 33 12 34 64 62 50 55 69 72 71 70 79 85 83 84 88 89 89 87 88 93 97 95 100 100 100 101 101 90 83
10 8 7 5 3 14 12 6 9 9 46 49 46 47 42 51 57 59 68 68 68 74 79 77 78 87 92 90 93 96 99 98 96 100 99 98 99 106 111 110 107 102 100 88
7 12 8 19 12 9 19 30 64 65 52 67 57 61 61 55 60 62 63 67 73 76 77 82 91 98 100 97 97 99 107 106 111 113 115 115 113 107 110 117 116 108 99 96
13 16 15 21 26 30 61 71 72 69 72 71 67 63 61 56 54 51 60 71 76 81 86 85 86 97 107 106 105 105 111 110 114 122 127 127 127 124 116 112 115 107 97 87
22 7 11 28 33 40 59 68 70 61 57 53 49 42 40 41 48 55 68 74 82 88 86 84 84 86 101 102 112 110 105 107 119 125 129 128 123 120 116 110 108 106 100 77
32 35 22 31 45 42 52 60 40 36 31 38 43 45 43 43 52 62 73 77 83 88 88 92 96 90 99 99 107 103 104 104 109 115 113 103 99 100 101 102 108 103 89 70
Wind_Direction_850mb
173 136 201 218 207 98 196 226 244 260 259 306 271 270 269 275 274 275 274 277 278 286 302 305 311 314 309 299 286 275 262 251 239 236 236 236 237 237 236 234 234 233 231 231
71 226 225 114 152 229 243 262 267 274 259 200 269 284 276 260 263 262 270 278 290 296 310 317 326 329 327 311 297 281 266 254 244 238 239 236 238 238 238 236 234 232 230 228
197 210 185 190 191 242 226 221 248 255 316 253 317 278 240 280 257 269 265 272 289 293 310 328 337 337 336 333 314 293 278 263 252 245 240 237 237 238 239 236 234 232 230 231
239 261 193 157 206 204 259 232 253 258 355 251 16 293 186 254 278 264 291 297 300 323 338 356 3 359 334 314 306 305 294 270 256 248 245 241 240 240 242 240 237 234 231 231
241 174 176 186 222 146 235 191 220 194 196 1 302 277 250 222 262 277 286 1 10 19 44 22 15 13 8 359 319 294 287 275 263 257 255 251 246 246 247 246 242 235 232 231
252 320 187 216 200 185 115 59 36 58 47 280 210 194 287 191 207 309 318 350 355 9 40 21 3 4 4 4 9 350 331 310 286 272 265 263 258 254 250 247 245 243 235 231
301 228 277 180 168 86 117 71 313 327 7 239 349 269 245 248 250 289 339 330 12 48 10 6 9 11 13 21 32 29 25 13 338 306 289 278 271 264 260 256 252 247 240 234
288 289 181 186 212 193 176 171 170 234 251 284 348 254 257 230 263 19 57 259 23 9 13 20 16 18 16 15 10 11 9 3 351 332 315 298 284 276 270 268 263 257 251 245
222 256 277 222 183 167 182 187 195 310 55 285 254 282 289 254 157 43 49 30 25 20 19 20 20 22 16 8 5 359 351 347 343 332 323 315 305 292 281 274 269 266 261 253
176 289 245 262 136 242 202 171 92 324 181 234 268 276 247 317 34 34 29 21 14 18 16 15 15 13 14 14 11 9 8 6 359 340 324 313 309 300 292 283 277 268 264 258
139 208 275 33 214 205 145 250 241 274 207 245 256 247 255 71 78 73 42 26 15 5 3 358 356 360 0 358 1 5 1 357 355 354 346 330 315 302 293 289 287 280 270 263
198 208 256 255 237 230 225 246 233 238 240 236 235 252 3 97 87 76 64 40 31 15 3 2 356 350 352 351 347 352 354 353 353 353 348 344 333 314 302 296 290 282 277 271
3 233 274 282 35 51 118 330 13 341 240 242 258 254 336 360 87 39 49 49 33 23 16 7 359 358 355 356 355 350 348 347 346 343 344 342 341 336 324 303 293 288 285 278
280 215 266 272 284 293 277 284 282 266 268 283 268 300 307 309 341 23 27 31 25 12 3 360 359 351 347 348 347 346 348 347 344 344 339 341 342 339 337 329 311 296 287 279
303 264 267 265 287 340 283 280 274 265 261 261 282 281 275 40 354 337 332 340 352 357 352 350 350 348 336 339 338 340 340 341 341 339 340 340 336 335 334 334 330 316 294 286
351 274 325 270 280 278 281 277 265 274 272 261 260 264 61 71 346 326 332 326 333 337 340 343 341 341 334 335 335 333 334 338 336 334 336 334 334 330 323 323 328 329 321 300
286 288 287 263 305 323 283 257 266 260 260 249 259 246 211 246 247 281 307 300 322 335 334 331 327 325 324 328 330 329 332 331 332 334 335 333 333 329 326 320 315 318 322 319
241 240 233 274 22 270 276 9 274 222 104 114 105 208 217 241 274 280 289 266 317 327 325 322 317 316 317 316 319 321 324 326 327 327 328 330 332 330 326 323 319 314 309 311
223 239 265 205 222 306 301 213 195 167 257 174 176 245 257 271 289 282 264 247 298 318 320 315 310 312 314 312 315 316 315 317 320 323 324 325 327 325 326 325 321 315 309 301
208 224 199 87 202 225 245 203 151 114 276 207 199 237 241 250 243 270 281 262 300 314 316 311 307 310 311 310 313 312 311 312 312 315 316 317 319 319 319 321 320 316 313 304
18 13 214 227 249 286 241 207 138 93 263 214 250 275 254 207 257 277 281 279 300 307 309 309 305 308 309 305 306 305 305 304 307 306 308 310 311 311 313 314 315 314 312 306
188 183 204 72 14 278 185 144 159 228 295 296 294 292 280 283 290 285 281 278 297 302 306 306 303 305 305 302 302 302 301 305 305 303 301 300 302 305 307 308 309 309 307 303
269 193 199 195 210 219 204 262 287 287 280 287 283 295 302 297 292 293 285 286 296 301 303 304 305 305 303 303 303 300 300 302 301 301 300 299 299 297 298 301 302 304 303 299
247 195 239 265 255 254 267 273 278 285 287 289 292 300 302 297 294 286 290 297 303 304 304 306 303 302 302 302 301 298 300 299 298 298 297 297 297 295 293 293 295 297 296 292
251 200 244 258 261 265 265 265 270 286 290 287 291 294 295 295 296 303 302 304 305 306 306 306 302 299 297 298 297 296 296 296 296 296 296 295 296 295 294 290 288 288 287 281
242 251 251 261 257 260 267 276 285 289 278 283 291 294 298 306 306 307 304 307 309 309 309 307 305 300 298 297 295 295 295 294 294 295 295 295 294 293 292 290 287 282 284 279